FENGYUN 1C DEB

Satellite information

Favourite Embed

Satellite Type and Status

DEBRISIN ORBIT

Key statistics

Satellite FENGYUN 1C DEB at a glance.

Uptime

9715

Days in orbit

Revolutions

≈ 14.2

Per day

Orbit

SSO

Sun Synchronous Orbit

Inclination

99.0

Latest

Satellite identification and parameters

Extended collection of information and parameters for FENGYUN 1C DEB.

Object identification

Identified? True

Debris? True

Object name: FENGYUN 1C DEB

International designator: 1999-025BQD

Object number (NORAD): 31325

Object ID (CCSDS): 31325

Country: PEOPLES REPUBLIC OF CHINA (PRC)

Current information (Y/N): Y

RCS size: SMALL

Orbital parameters

Period: 101.631 minutes

Inclination: 98.9911 deg

SMA: 7214.044 km

Apoapsis: 887.894 km

Periapsis: 783.924 km

RAAN: 80.6439 deg

Eccentricy: 0.00720609

Argument of periapsis: 221.2361 deg

Mean anomaly: 138.3357 deg

Mean motion: 14.16884975 rev/day

Mean motion (dot): 0.00006822 rev/day2

B* drag term: 0.0033364184 1/REarth

Two-line elements (TLE)

Creation date: Dec. 13, 2025, 4:32 a.m.

Reference frame: TEME

Reference center: EARTH

Epoch: Dec. 12, 2025, 11:44 a.m. UTC

TLE line 0: 0 FENGYUN 1C DEB

TLE line 1: 1 31325U 99025BQD 25346.48918069 .00006822 00000-0 33364-2 0 9993

TLE line 2: 2 31325 98.9911 80.6439 0072061 221.2361 138.3357 14.16884975597741

Live tracking on map

Real-time ground track for satellite FENGYUN 1C DEB.

In-orbit conjunctions

A list of the most updated potential collisions computed for object FENGYUN 1C DEB.

Target Orbit TCA Probability of collision Miss distance Type
THOR BURNER 2 R/B SSO 2025-10-23 06:51:49 0.0003177379 393.0 (m) ROCKET BODY
FENGYUN 1C DEB SSO 2025-10-16 19:48:51 0.0001332864 187.0 (m) DEBRIS
CZ-6A DEB LEO 2025-03-05 06:26:51 0.0001098242 233.0 (m) DEBRIS
CZ-6A DEB LEO 2025-03-02 20:40:23 0.0001077158 344.0 (m) DEBRIS
COSMOS 651 LEO 2025-01-20 07:15:09 0.0001081634 391.0 (m) PAYLOAD

Associated space launch

Chinese polar orbiting meteorological satellite

FENGYUN 1C DEB was lifted into orbit during the mission ‘Long March 4B | Feng Yun 1C’, on board a Long March 4B space rocket.

The launch took place on May 10, 1999, 1:33 a.m. from Launch Complex 7.

For more information about the launch, click the button.

Launch to space Long March 4B | Feng Yun 1C
Long March 4B | Feng Yun 1C

Agency: N/A

Status: Launch Successful

Launch date: May 10, 1999, 1:33 a.m. UTC

Rocket: Long March 4B

Launch pad: Launch Complex 7

Location: Taiyuan Satellite Launch Center, People's Republic of China

...

Latest news about this satellite

There are no fresh news available about this satellite. Check back as we update our databases every day.


Newsletter sign-up

Weekly statistics, charts and insights to help you stay on top of the space industry.